Regional Weather Roundup
Issued by NWS

Home | Current Version | Previous Version | Text Only | Print | Product List | Glossary On
Versions: 1 2 3 4 5 6 7 8 9 10 11 12 13 14 15 16 17 18 19 20 21 22 23 24 25 26 27 28 29 30 31 32 33 34 35 36 37 38 39 40 41 42 43 44 45 46 47 48 49 50
000
ASUS43 KMKX 211420
RWRWI

WISCONSIN REGIONAL WEATHER ROUNDUP
NATIONAL WEATHER SERVICE MILWAUKEE/SULLIVAN WI
800 AM CST SUN JAN 21 2018

NOTE: "FAIR" INDICATES FEW OR NO CLOUDS BELOW 12,000 FEET WITH NO
SIGNIFICANT WEATHER AND/OR OBSTRUCTIONS TO VISIBILITY.

WIZ001-002-006>008-014>016-023>028-211500-
NORTHWEST WISCONSIN

CITY           SKY/WX    TMP DP  RH WIND       PRES   REMARKS
SUPERIOR ARPT  FAIR      22  22  97 W3        29.99R
ASHLAND        FOG       23  22  96 CALM      29.98S VSB 1
HAYWARD        FAIR      26  23  88 CALM      29.96S FOG
SIREN          CLOUDY    29  27  94 CALM      29.98R
CUMBERLAND     CLOUDY    32  28  86 N3        29.96R
RICE LAKE      CLOUDY    31  29  94 N3        29.97S
CHETEK         CLOUDY    30  28  93 CALM      29.95F
LADYSMITH      CLOUDY    32  30  93 CALM      29.97S
EAU CLAIRE     CLOUDY    26  25  96 CALM      29.95R FOG
MENOMONIE      CLOUDY    29  28  98 CALM      29.96S FOG
NEW RICHMOND   CLOUDY    28  28  98 CALM      29.97R FOG
OSCEOLA        CLOUDY    31  31 100 CALM      30.00R
$$

WIZ003>005-009-010-017-018-211500-
NORTH CENTRAL WISCONSIN

CITY           SKY/WX    TMP DP  RH WIND       PRES   REMARKS
MANITOWISH WTR CLOUDY    24  24 100 CALM      29.94S
ARBOR VITAE    CLOUDY    29  27  94 CALM      29.93S FOG
WOODRUFF       CLOUDY    29  27  94 CALM      29.93S FOG
RHINELANDER    CLOUDY    30  29  96 CALM      29.94S FOG
EAGLE RIVER    FAIR      26  26 100 CALM      29.94S FOG
LAND O LAKES   CLOUDY    25  24  98 CALM      29.96R
PHILLIPS       CLOUDY    28  28 100 CALM      29.95R FOG
TOMAHAWK       CLOUDY    29  28  94 CALM      29.94S FOG
MEDFORD        CLOUDY    29  27  94 NE6       29.92R FOG     WCI  23
MERRILL        CLOUDY    28  28 100 CALM      29.95R FOG
$$

WIZ029-030-035-036-043>047-211500-
CENTRAL WISCONSIN

CITY           SKY/WX    TMP DP  RH WIND       PRES   REMARKS
WAUSAU         CLOUDY    29  27  92 CALM      29.93R FOG
MOSINEE        MOCLDY    28  28 100 CALM      29.95R
MARSHFIELD     FAIR      27  26  96 CALM      29.93R FOG
STEVENS POINT  FAIR      22  22 100 CALM      29.95S FOG
WAUPACA        FAIR      24  22  91 CALM      29.96S
WAUTOMA        MOCLDY    21  21 100 CALM      29.97R FOG
WISC RAPIDS    FAIR      22  19  89 CALM      29.95S FOG
CAMP DOUGLAS   FAIR      21  21  99 CALM      29.95R
$$

WIZ011>013-019>022-031-037>040-048>050-211500-
NORTHEAST WISCONSIN

CITY           SKY/WX    TMP DP  RH WIND       PRES   REMARKS
ANTIGO         CLOUDY    29  28  97 N3        29.93F
SHAWANO        CLOUDY    29  27  93 CALM      29.96S FOG
OCONTO         CLOUDY    28  27  95 CALM      29.97S
STURGEON BAY   CLOUDY    32  31  96 S5        29.97S FOG     WCI  27
GREEN BAY      FOG       27  25  92 CALM      29.97R VSB 1/2
MANITOWOC      FAIR      27  25  93 NW3       29.98R FOG
APPLETON       MOCLDY    27  27 100 CALM      29.94F FOG
CLINTONVILLE     N/A     25  23  93 CALM      29.96S FOG
OSHKOSH        FOG       27  26  96 S8        29.96R VSB<1/4 WCI  19
$$

WIZ032>034-041-042-053>061-211500-
SOUTHWEST WISCONSIN

CITY           SKY/WX    TMP DP  RH WIND       PRES   REMARKS
LA CROSSE      FOG       25  23  92 CALM      29.97R VSB<1/4
SPARTA         FOG       20  19  98 CALM      29.97R VSB<1/4
VIROQUA          N/A     32  32 100 S3        29.93S
BOSCOBEL       FOG       27  25  92 NE3       29.97R VSB 1/4
PRAIRIE DU CHI FOG       29  28  95 CALM      29.95S VSB<1/4
PLATTEVILLE    FAIR      34  34 100 E6        29.94R WCI  29
$$

WIZ056-057-062-063-064-067-068-211500-
SOUTH CENTRAL WISCONSIN

CITY           SKY/WX    TMP DP  RH WIND       PRES   REMARKS
REEDSBURG      FOG       24  24 100 CALM      29.95S VSB<1/4
BARABOO/DELLS  FOG       25  24  98 CALM      29.94F VSB<1/4
LONE ROCK      FOG       28  28 100 CALM      29.96S VSB<1/4
MINERAL POINT  FOG       36  36 100 CALM      29.93R VSB 1
MADISON        CLOUDY    31  31 100 CALM      29.96S FOG
MIDDLETON      CLOUDY    33  33 100 CALM      29.95S
WATERTOWN      CLOUDY    30  30 100 CALM      29.96R FOG
MONROE         FOG       34  34 100 CALM      29.93S VSB 1/4
JANESVILLE     CLOUDY    36  36 100 CALM      29.94F FOG
$$

WIZ051-052-058>065-066-070>072-211500-
SOUTHEAST WISCONSIN

CITY           SKY/WX    TMP DP  RH WIND       PRES   REMARKS
MILWAUKEE      CLOUDY    34  33  96 CALM      29.97S FOG
WAUKESHA       CLOUDY    32  30  93 CALM      29.97S FOG
MILWAUKEE/TIMM CLOUDY    34  30  86 CALM      29.98S FOG
RACINE         CLOUDY    37  35  92 CALM      29.98S FOG
BURLINGTON     CLOUDY    34  32  94 CALM      29.96S FOG
KENOSHA        CLOUDY    38  35  89 S3        29.96F FOG
FOND DU LAC    FOG       29  26  89 SE6       29.97R VSB<1/4 WCI  23
SHEBOYGAN      FOG       24  24 100 MISG      29.98R VSB<1/4
WEST BEND      FOG       32  32 100 CALM      29.97S VSB<1/4
JUNEAU         FOG       29  29  99 CALM      29.97S VSB<1/4
$$

LSZ147-162-211500-
LAKE SUPERIOR

STATION/POSITION TIME  TEMP    WIND        PRES    WAVE
                       AIR SEA DIR/SP/G            HT/PER
                 (UTC) (F)     (DEG/KT/KT) (MB)    (FT/S)
DEVILS ISLAND    1400   30      30/  2/  3 1016.3F
SAXON HARBOR     1340   27      CALM  /  1 1014.9S
$$

LMZ867-665-643>646-211500-
LAKE MICHIGAN

STATION/POSITION TIME  TEMP    WIND        PRES    WAVE
                       AIR SEA DIR/SP/G            HT/PER
                 (UTC) (F)     (DEG/KT/KT) (MB)    (FT/S)
NORTHPORT PIER   1404   34      CALM  /  6 1015.2
KEWAUNEE LAKESHO 1400   27     300/  5/  5 1014.2
SHEBOYGAN LAKESH 1400   30     250/  7/  8 1015.9R
PORT WASHINGTON  1340   34     270/  2/  3 1016.3R
MILWAUKEE LAKESH 1400   34        CALM       N/A
KENOSHA   LAKESH 1400   35     180/  4/  6 1015.2
$$

TC  - TEMPERATURE IN CELSIUS
VSB - VISIBILITY IN STATUTE MILES
WCI - WIND CHILL INDEX
HX  - HEAT INDEX





USA.gov is the U.S. government's official web portal to all federal, state and local government web resources and services.